カタログに戻る

LEMUR-2 POLO-11

運用中科学SSO
NORAD 68493·PAYLOAD·🇱🇺 Luxembourg

打ち上げ Mar 30, 2026 から Vandenberg Space Force Base

Loading…

次のパス (今後24時間)

TLE

最新Source: Space-Track

元期: Sep 14, 2026, 14:20 UTC

1 68493U 26067CF  26257.59739415  .00004252  00000-0  42019-3 0  9998
2 68493  97.7746 214.6139 0005246  85.3129 274.8690 14.92438237 25054

AllMySatでLEMUR-2 POLO-11をリアルタイム追跡

Download on the App Store